Location: Lombard
(41.8800°N, 88.0080°W)
Time: 07:52:03
(UTC-06:00)

A-11 Canister half - All Passes

Search period start: 27 January 2023 00:00
Search period end: 06 February 2023 00:00
Orbit: 1525 x 1683 km, 47.3° (Epoch: 25 January)

Date Brightness Start Highest point End Pass type
(mag) Time Alt. Az. Time Alt. Az. Time Alt. Az.
27 Jan - 05:15:05 10° S 05:21:36 22° SE 05:28:10 10° E visible
27 Jan - 07:16:05 10° SW 07:25:16 68° SE 07:34:40 10° ENE daylight
27 Jan - 09:21:08 10° W 09:30:28 68° NNW 09:40:07 10° ENE daylight
27 Jan - 11:26:56 10° WNW 11:36:26 70° NNE 11:46:15 10° E daylight
27 Jan - 13:32:09 10° WNW 13:41:40 66° SW 13:51:29 10° SE daylight
27 Jan - 15:38:40 10° W 15:45:28 22° SW 15:52:23 10° S daylight
28 Jan - 04:53:46 10° S 05:00:00 20° SE 05:06:15 10° E visible
28 Jan - 06:54:27 10° SW 07:03:35 66° SE 07:12:56 10° ENE daylight
28 Jan - 08:59:23 10° W 09:08:44 69° NNW 09:18:22 10° ENE daylight
28 Jan - 11:05:13 10° WNW 11:14:42 69° NNE 11:24:28 10° E daylight
28 Jan - 13:10:27 10° WNW 13:19:58 69° SW 13:29:48 10° SE daylight
28 Jan - 15:16:47 10° W 15:23:49 23° SW 15:31:02 10° S daylight
29 Jan - 04:32:30 10° SSE 04:38:24 19° SE 04:44:19 10° E visible
29 Jan - 06:32:49 10° SW 06:41:56 63° SE 06:51:12 10° ENE visible
29 Jan - 08:37:40 10° W 08:47:00 70° NNW 08:56:36 10° ENE daylight
29 Jan - 10:43:31 10° WNW 10:52:57 68° N 11:02:42 10° E daylight
29 Jan - 12:48:45 10° WNW 12:58:16 71° SSW 13:08:07 10° SE daylight
29 Jan - 14:54:55 10° W 15:02:12 24° SW 15:09:37 10° S daylight
30 Jan - 04:11:15 10° SSE 04:16:48 18° SE 04:22:21 10° E visible
30 Jan - 06:11:13 10° SW 06:20:16 61° SE 06:29:28 10° ENE visible
30 Jan - 08:15:57 10° W 08:25:16 71° NNW 08:34:51 10° ENE daylight
30 Jan - 10:21:47 10° WNW 10:31:12 67° N 10:40:55 10° E daylight
30 Jan - 12:27:03 10° WNW 12:36:34 74° SSW 12:46:24 10° SE daylight
30 Jan - 14:33:05 10° WNW 14:40:33 26° SW 14:48:12 10° S daylight
31 Jan - 03:50:04 10° SSE 03:55:12 16° SE 04:00:21 10° E visible
31 Jan - 05:49:36 10° SW 05:58:36 58° SE 06:07:44 10° ENE visible
31 Jan - 07:54:13 10° W 08:03:32 73° NNW 08:13:06 10° ENE daylight
31 Jan - 10:00:04 10° WNW 10:09:27 66° N 10:19:07 10° E daylight
31 Jan - 12:05:21 10° WNW 12:14:52 76° SSW 12:24:43 10° SE daylight
31 Jan - 14:11:16 10° WNW 14:18:55 27° SW 14:26:46 10° S daylight
01 Feb - 03:28:56 10° SSE 03:33:36 15° ESE 03:38:17 10° E visible
01 Feb - 05:28:00 10° SW 05:36:57 55° SE 05:46:01 10° ENE visible
01 Feb - 07:32:29 10° WSW 07:41:49 74° NNW 07:51:21 10° ENE daylight
01 Feb - 09:38:21 10° WNW 09:47:43 65° N 09:57:20 10° E daylight
01 Feb - 11:43:40 10° WNW 11:53:10 79° SSW 12:03:00 10° SE daylight
01 Feb - 13:49:27 10° WNW 13:57:16 29° SW 14:05:17 10° S daylight
02 Feb - 03:07:53 10° SSE 03:12:01 14° ESE 03:16:09 10° E visible
02 Feb - 05:06:25 10° SSW 05:15:18 53° SE 05:24:16 10° ENE visible
02 Feb - 07:10:47 10° WSW 07:20:05 75° NNW 07:29:37 10° ENE daylight
02 Feb - 09:16:38 10° WNW 09:25:58 65° N 09:35:33 10° E daylight
02 Feb - 11:21:57 10° WNW 11:31:28 81° SSW 11:41:17 10° SE daylight
02 Feb - 13:27:40 10° WNW 13:35:37 31° SW 13:43:48 10° S daylight
03 Feb - 02:46:56 10° SE 02:50:25 13° ESE 02:53:54 10° E visible
03 Feb - 04:44:49 10° SSW 04:53:39 51° SE 05:02:32 10° ENE visible
03 Feb - 06:49:03 10° WSW 06:58:22 77° NNW 07:07:53 10° ENE daylight
03 Feb - 08:54:55 10° WNW 09:04:13 64° N 09:13:46 10° E daylight
03 Feb - 11:00:16 10° WNW 11:09:46 83° SSW 11:19:34 10° ESE daylight
03 Feb - 13:05:52 10° WNW 13:13:59 32° SW 13:22:18 10° S daylight
04 Feb - 02:26:12 10° SE 02:28:50 11° ESE 02:31:28 10° ESE visible
04 Feb - 04:23:15 10° SSW 04:32:00 48° SE 04:40:48 10° ENE visible
04 Feb - 06:27:20 10° WSW 06:36:39 79° NNW 06:46:08 10° ENE visible
04 Feb - 08:33:11 10° WNW 08:42:28 64° N 08:52:00 10° E daylight
04 Feb - 10:38:34 10° WNW 10:48:03 86° SSW 10:57:51 10° ESE daylight
04 Feb - 12:44:06 10° WNW 12:52:20 34° SW 13:00:47 10° SSE daylight
05 Feb - 02:06:03 10° SE 02:07:15 10° ESE 02:08:27 10° ESE visible
05 Feb - 04:01:41 10° SSW 04:10:21 46° SE 04:19:04 10° ENE visible
05 Feb - 06:05:37 10° WSW 06:14:57 80° NNW 06:24:25 10° ENE visible
05 Feb - 08:11:27 10° WNW 08:20:44 64° N 08:30:14 10° E daylight
05 Feb - 10:16:53 10° WNW 10:26:21 88° SSW 10:36:07 10° ESE daylight
05 Feb - 12:22:21 10° WNW 12:30:41 36° SW 12:39:16 10° SSE daylight
